Regional Weather Roundup
Issued by NWS Green Bay, WI

Home | Current Version | Previous Version | Graphics & Text | Print | Product List | Glossary Off
Versions: 1 2 3 4 5 6 7 8 9 10 11 12 13 14 15 16 17 18 19 20 21 22 23 24 25 26 27 28 29 30 31 32 33 34 35 36 37 38 39 40 41 42 43 44 45 46 47 48 49 50

000
ASUS43 KGRB 191111
RWRGRB

NORTH-CENTRAL AND NORTHEAST WISCONSIN REGIONAL WEATHER ROUNDUP
NATIONAL WEATHER SERVICE GREEN BAY WI
500 AM CST SUN FEB 19 2017

WIZ005-009-010>012-018-019-191200-
NORTH CENTRAL WISCONSIN

CITY           SKY/WX    TMP DP  RH WIND       PRES   REMARKS
IRONWOOD       CLOUDY    28  25  88 CALM      29.92R
MANITOWISH WTR CLEAR     24  24 100 CALM      29.91R
ARBOR VITAE    CLEAR     32  29  90 CALM      29.91R
EAGLE RIVER    CLEAR     29  24  84 CALM      29.90R
LAND O LAKES   CLEAR     28  25  90 CALM      29.91R
RHINELANDER    CLEAR     38  29  70 NW3       29.91R
PHILLIPS       CLEAR     27  27 100 CALM      29.91R
ANTIGO         CLEAR     26  24  91 NW3       29.91R
TOMAHAWK       CLEAR     30  28  90 CALM      29.91S
MERRILL        NOT AVBL
$$

WIZ013-073-191200-
NORTHEAST WISCONSIN

CITY           SKY/WX    TMP DP  RH WIND       PRES   REMARKS
IRON MOUNTAIN  PTCLDY    35  25  66 N6        29.88R
MARINETTE      CLOUDY    43  29  57 NW3       29.91R
OCONTO         MOCLDY    33  29  86 CALM      29.91R
$$

WIZ017-030-035>037-045-191200-
CENTRAL WISCONSIN

CITY           SKY/WX    TMP DP  RH WIND       PRES   REMARKS
MEDFORD        CLEAR     35  32  89 CALM      29.91S
WAUSAU         CLEAR     32  30  92 CALM      29.91R
MOSINEE        CLEAR     34  32  93 SW3       29.93R
MARSHFIELD     CLEAR     36  31  82 SW5       29.92R
WISC RAPIDS    CLEAR     28  28 100 CALM      29.95R
STEVENS POINT  CLEAR     28  28 100 CALM      29.95R
WAUPACA        CLOUDY    37  32  81 CALM      29.94R
SHAWANO        CLOUDY    39  32  76 CALM      29.92R
CLINTONVILLE   CLOUDY    37  32  81 CALM      29.91R
WAUTOMA        CLEAR     30  29  96 CALM      29.95R
$$

WIZ038-039-048-051-191200-
FOX VALLEY

CITY           SKY/WX    TMP DP  RH WIND       PRES   REMARKS
NWS GREEN BAY  CLOUDY    37  33  85 CALM      29.92R
APPLETON       CLOUDY    36  30  80 W10       29.92R
OSHKOSH        CLOUDY    40  30  67 W8        29.93R
FOND DU LAC    CLOUDY    33  28  81 S3        29.94R
$$

WIZ022-050-052-191200-
EAST CENTRAL WISCONSIN

CITY           SKY/WX    TMP DP  RH WIND       PRES   REMARKS
EPHRAIM        FAIR      40  30  67 W7        29.89R
WASHINGTON ISL FAIR      34  29  82 CALM      29.88R
STURGEON BAY   PTCLDY    41  30  65 W6        29.92R
MANITOWOC      CLOUDY    43  32  65 MISG      29.92R
SHEBOYGAN      CLOUDY    41  31  67 W7        29.92R
$$

LMZ563-521-522-541>543-191200-
LAKESHORE

STATION/POSITION TIME  TEMP    WIND        PRES    VSBY  WAVE
                       AIR SEA DIR/SP/G                  HT/PER
                 (UTC) (F)     (DEG/KT/KT) (MB)    (MI)  (FT/S)
SHEBOYGAN LKSHOR 1100   46     280/ 11/ 12 1013.2R
KEWAUNEE LKSHORE 1048   43     300/  5/  8 1012.2R
NORTHPORT PIER   1040   44     280/  5/ 11 1012.2R
SISTER BAY LKSHO 1035   39        CALM       N/A
CHAMBERS ISLAND  1040   37     210/  3/  5 1012.2R
MENOMINEE LKSHOR 1048   44     260/  4/  5 1011.8R
$$




USA.gov is the U.S. government's official web portal to all federal, state and local government web resources and services.